Location: Foots Cray
(51.4000°N, 0.1167°E)
Time: 03:38:34
(UTC+00:00)

NOSS 3-4 (A) - Pass Details

Date: 15 May 2026
Orbit: 769 x 1442 km, 63.4° (Epoch: 10 January)

Event Time Altitude Azimuth Distance (km) Brightness Sun altitude
Rises 20:38:38 0° 314° (NW) 3,605 9.2 -7.4°
Reaches altitude 10° 20:41:01 10° 316° (NW) 2,741 7.6 -7.7°
Maximum altitude 20:47:32 77° 43° (NE) 1,138 3.9 -8.4°
Enters shadow 20:55:06 11° 130° (SE) 3,166 5.5 -9.3°
